Location: Bay Shore Mobile Home Park
(38.5762°N, 75.0841°W)
Time: 09:25:12
(UTC+00:00)

Timation 2 Rocket - Pass Details

Date: 15 November 2025
Orbit: 904 x 1075 km, 70.0° (Epoch: 05 December)

Event Time Altitude Azimuth Distance (km) Brightness Sun altitude
Rises 22:51:36 0° 204° (SSW) 3,820 7.7 -12.8°
Reaches altitude 10° 22:54:11 10° 206° (SSW) 2,883 7.0 -13.3°
Maximum altitude 23:01:02 83° 294° (WNW) 1,087 4.3 -14.6°
Drops below altitude 10° 23:07:56 10° 22° (NNE) 2,907 6.2 -15.9°
Enters shadow 23:10:02 - 24° (NNE) 3,664 6.7 -16.3°
